User: anonymous   Login
Location: Unspecified
(0.0000°N, 0.0000°E)
Time: 20:33:45
(UTC+00:00)
Language:

SL-12 R/B(2) - Orbit

View from above orbital plane
View from above orbital plane
View from above satellite
View from above satellite

Ground track
Ground track

The orbit data is extracted from the following two-line orbital elements,

1 26486U 00051D   24201.56601242  .00000095  00000-0  00000+0 0  9990
2 26486  63.1601 284.4353 7183609 277.7756 104.2872  1.45765991127055
Epoch (UTC): 19 July 2024 13:35:03
Eccentricity: 0.7183609
inclination: 63.1601°
perigee height: 2876 km
apogee height: 50082 km
right ascension of ascending node: 284.4353°
argument of perigee: 277.7756°
revolutions per day: 1.45765991
mean anomaly at epoch: 104.2872°
orbit number at epoch: 12705

The dashed part of the orbit path shows where the satellite is in the earth's shadow,  

DLR